Content
SEND FEEDBACK

Daily
Averages
Monthly
Summary
United States of America

CAMDEN, NEW YORK


Home > North America > United States > New York
Elevation: 540 feet     Latitude: 43 22N     Longitude: 075 47W

WEATHER
 
SELECT A DAY
Number of Records: 224,075;   Date Range: 1/1/95 - 9/16/14
 
SHARE

PRINT THIS DATA

[ ← Previous Day ]
WEATHER ALMANAC - JANUARY 23, 2013
[ Next Day → ]
[ °C ]   °F
Weather ElementAverageHighLow
Temperature3.1 °F7 °F (12:54 am)-4 °F (11:54 pm)
Dewpoint-4.7 °F1.9 °F (3:54 am)-9.9 °F (10:54 pm)
Humidity70.4 %85 % (4:58 am)53 % (1:54 pm)
Barometer30.19 in30.26 in (10:54 am)30.14 in (2:00 am)
Wind Speed4.6 mph8.1 mph (4:40 am)
Weather ElementAverage
Visibility5.2 mi
Wind DirectionESE (113.7 °)

Weather ElementTotal
Precipitation0.03 in
Heating Degree Days63.5 (Base 65)
Averaged from 38 records on January 23, 2013
WEATHER CONDITIONS BREAKOUT
WIND DIRECTION BREAKOUT
WEATHER BY HOUR - JANUARY 23, 2013
[ °C ]   °F
Local TimeTemperatureDewpointHumidityBarometerVisibilityWind DirectionWind SpeedGust SpeedPrecipitationEventsConditions
12:54 AM7.0 °F1.0 °F77 %30.15 in1.5 miNW (310°)5.8 mph0.01 inSnowLight Snow
1:54 AM7.0 °F0.0 °F73 %30.16 in2.5 miWNW (300°)6.9 mph0.00 inSnowLight Snow
2:00 AM6.8 °F-0.4 °F72 %30.14 in2.5 miWNW (300°)6.9 mph0.00 inSnowLight Snow
2:45 AM6.8 °F1.4 °F79 %30.15 in1.8 miNW (310°)4.6 mph0.00 inSnowLight Snow
2:54 AM7.0 °F1.0 °F77 %30.17 in1.5 miWest (270°)4.6 mph0.00 inSnowLight Snow
3:54 AM7.0 °F1.9 °F80 %30.16 in2.0 miWest (280°)3.5 mph0.01 inSnowLight Snow
4:40 AM6.8 °F-0.4 °F72 %30.15 in2.5 miNE (50°)8.1 mph0.00 inSnowLight Snow
4:48 AM6.8 °F-0.4 °F72 %30.15 in2.5 miVariable3.5 mph0.00 inSnowLight Snow
4:54 AM5.0 °F-0.9 °F76 %30.17 in2.5 miENE (60°)4.6 mph0.00 inSnowLight Snow
4:58 AM3.2 °F-0.4 °F85 %30.15 in2.5 miNE (50°)5.8 mph0.00 inSnowLight Snow
5:54 AM1.9 °F-2.9 °F80 %30.18 in2.5 miCalm0.00 inSnowLight Snow
5:59 AM1.4 °F-2.2 °F85 %30.16 in2.5 miCalm0.00 inSnowLight Snow
6:46 AM3.2 °F-2.2 °F78 %30.18 in1.5 miNNE (20°)5.8 mph0.00 inSnowLight Snow
6:54 AM1.9 °F-2.9 °F80 %30.20 in1.8 miNorth (10°)6.9 mph0.01 inSnowLight Snow
7:08 AM1.4 °F-4.0 °F78 %30.18 in1.8 miNorth (360°)5.8 mph0.00 inSnowLight Snow
7:31 AM1.4 °F-5.8 °F72 %30.18 in2.0 miNNE (20°)5.8 mph0.00 inSnowLight Snow
7:45 AM1.4 °F-5.8 °F72 %30.19 in4.0 miNNE (20°)3.5 mph0.00 inSnowLight Snow
7:54 AM1.0 °F-5.1 °F75 %30.21 in5.0 miNNE (20°)4.6 mph0.00 inSnowLight Snow
8:14 AM1.4 °F-5.8 °F72 %30.19 in2.5 miNorth (10°)6.9 mph0.00 inSnowLight Snow
8:40 AM-0.4 °F-7.6 °F72 %30.21 in1.8 miNorth (10°)5.8 mph0.00 inSnowLight Snow
8:52 AM-0.4 °F-7.6 °F72 %30.21 in2.0 miNorth (10°)8.1 mph0.00 inSnowLight Snow
8:54 AM-0.9 °F-8.0 °F72 %30.23 in2.5 miNorth (10°)8.1 mph0.00 inSnowLight Snow
9:22 AM-0.4 °F-7.6 °F72 %30.22 in3.0 miNNE (20°)5.8 mph0.00 inSnowLight Snow
9:54 AM1.0 °F-8.0 °F66 %30.25 in6.0 miNorth (350°)5.8 mph0.00 inSnowLight Snow
10:54 AM1.9 °F-7.1 °F66 %30.26 in7.0 miCalm0.00 inOvercast
11:54 AM6.1 °F-5.1 °F60 %30.24 in10.0 miCalmScattered Clouds
12:54 PM6.1 °F-7.1 °F55 %30.22 in10.0 miWNW (290°)6.9 mphMostly Cloudy
1:54 PM7.0 °F-7.1 °F53 %30.21 in10.0 miWNW (290°)5.8 mphScattered Clouds
2:54 PM7.0 °F-6.0 °F55 %30.20 in10.0 miNNW (340°)3.5 mphOvercast
3:54 PM7.0 °F-7.1 °F53 %30.20 in10.0 miCalmMostly Cloudy
4:54 PM6.1 °F-7.1 °F55 %30.20 in10.0 miCalmMostly Cloudy
5:54 PM3.9 °F-7.1 °F60 %30.20 in10.0 miEast (80°)3.5 mphMostly Cloudy
6:54 PM3.0 °F-8.0 °F60 %30.19 in10.0 miEast (90°)5.8 mphMostly Cloudy
7:54 PM1.9 °F-8.0 °F63 %30.18 in10.0 miEast (90°)5.8 mphPartly Cloudy
8:54 PM0.0 °F-9.0 °F66 %30.18 in10.0 miEast (100°)4.6 mphPartly Cloudy
9:54 PM-2.0 °F-9.0 °F72 %30.18 in10.0 miEast (80°)3.5 mphScattered Clouds
10:54 PM-2.9 °F-9.9 °F72 %30.17 in10.0 miEast (90°)4.6 mphPartly Cloudy
11:54 PM-4.0 °F-9.9 °F76 %30.17 in10.0 miEast (80°)4.6 mphPartly Cloudy
Hourly data recorded from KSYR, located miles away from Camden, New York







STORIES FROM OUR PARTNERS